Terminal Aerodrome Forecast
Issued by NWS

Home | Current Version | Previous Version | Graphics & Text | Print | Product List | Glossary On
Versions: 1 2 3 4 5 6 7 8 9 10 11 12 13 14 15 16 17 18 19 20 21 22 23 24 25 26 27 28 29
000
FTUS42 KMHX 170600 AAA
TAFOAJ
TAF AMD
KOAJ 170609Z 1706/1806 20005KT P6SM SCT070 BKN080
      TEMPO 1706/1707 5SM -RA
     FM170700 VRB03KT 5SM -RA SCT035 BKN110
     FM170800 00000KT P6SM OVC040
     FM171300 04005KT P6SM VCSH OVC050
     FM171900 04005KT P6SM VCSH BKN050
      AMD LTD TO CLD VIS AND WIND=

USA.gov is the U.S. government's official web portal to all federal, state and local government web resources and services.